TimeCST,TemperatureF,Dew PointF,Humidity,Sea Level PressureIn,VisibilityMPH,Wind Direction,Wind SpeedMPH,Gust SpeedMPH,PrecipitationIn,Events,Conditions,WindDirDegrees,DateUTC
12:53 AM,44.1,41.0,89,30.14,10.0,Calm,Calm,-,N/A,,Clear,0,2013-02-12 06:53:00
1:53 AM,42.1,39.9,92,30.16,10.0,South,3.5,-,N/A,,Clear,180,2013-02-12 07:53:00
2:53 AM,42.1,39.9,92,30.16,10.0,Calm,Calm,-,N/A,,Clear,0,2013-02-12 08:53:00
3:53 AM,42.1,39.0,89,30.14,10.0,Calm,Calm,-,N/A,,Clear,0,2013-02-12 09:53:00
4:53 AM,39.0,37.0,93,30.10,10.0,ENE,4.6,-,N/A,,Clear,60,2013-02-12 10:53:00
5:53 AM,41.0,35.1,79,30.06,10.0,East,8.1,-,N/A,,Clear,90,2013-02-12 11:53:00
6:53 AM,39.9,36.0,86,30.12,10.0,Calm,Calm,-,N/A,,Clear,0,2013-02-12 12:53:00
7:53 AM,44.1,36.0,73,30.09,10.0,East,4.6,-,N/A,,Clear,80,2013-02-12 13:53:00
8:53 AM,46.9,37.0,68,30.06,10.0,ENE,10.4,-,N/A,,Clear,60,2013-02-12 14:53:00
9:53 AM,48.0,35.1,61,30.08,10.0,East,6.9,-,N/A,,Clear,100,2013-02-12 15:53:00
10:53 AM,50.0,34.0,54,30.08,10.0,ESE,4.6,-,N/A,,Overcast,120,2013-02-12 16:53:00
11:53 AM,48.9,33.1,54,30.08,10.0,East,4.6,-,N/A,,Overcast,100,2013-02-12 17:53:00
12:53 PM,48.9,37.0,64,30.03,10.0,NE,4.6,-,0.00,,Overcast,50,2013-02-12 18:53:00
1:53 PM,48.0,39.9,74,29.96,10.0,NE,8.1,-,0.01,,Overcast,40,2013-02-12 19:53:00
2:53 PM,48.9,37.0,64,29.93,10.0,ENE,9.2,-,N/A,,Overcast,70,2013-02-12 20:53:00
3:53 PM,48.9,37.9,66,29.89,10.0,ENE,10.4,-,0.00,,Overcast,60,2013-02-12 21:53:00
4:53 PM,48.0,39.0,71,29.91,10.0,NNE,6.9,-,N/A,,Overcast,20,2013-02-12 22:53:00
5:53 PM,46.0,39.9,79,29.89,10.0,NE,9.2,-,0.00,,Overcast,50,2013-02-12 23:53:00
6:53 PM,46.9,39.9,77,29.88,10.0,ENE,10.4,-,N/A,,Overcast,70,2013-02-13 00:53:00
7:53 PM,46.9,39.0,74,29.85,10.0,ENE,6.9,-,N/A,,Overcast,70,2013-02-13 01:53:00
8:53 PM,46.9,37.0,68,29.82,10.0,East,6.9,-,N/A,,Overcast,80,2013-02-13 02:53:00
9:53 PM,46.9,37.9,71,29.83,10.0,Variable,3.5,-,0.00,,Overcast,0,2013-02-13 03:53:00
10:53 PM,45.0,39.9,82,29.83,10.0,NE,3.5,-,0.00,,Overcast,50,2013-02-13 04:53:00
11:39 PM,44.6,39.2,81,29.81,10.0,North,4.6,-,N/A,,Overcast,360,2013-02-13 05:39:00
11:53 PM,44.1,39.9,85,29.83,10.0,NNW,4.6,-,N/A,,Overcast,340,2013-02-13 05:53:00